[[{"header":{"parameterUnit":"m.s-1","parameterCategory":1,"la1":30.2991,"la2":30.254,"lo1":-89.0895,"lo2":-89.0444,"dy":0.0017,"dx":0.0017,"nx":28,"ny":28,"refTime":"2025-03-30T03:00:00:Z","depth":0,"parameterNumber":2,"parameterNumberName":"U-component_of_WINDS"},"data":[0,0,0,0,0,0,0,0,0,0,0,0,0,0,0,0,0,0,0,0,0,0,0,0,0,0,0,0,0,0,0,0,0,0,0,0,0,0,0,0,0,0,0,0,0,0,0,0,0,0,0,0,0,0,0,0,0,0,-3.2029,-3.2031,0,-3.2245,-3.2247,-3.225,-3.2324,-3.2323,-3.2322,-3.2321,-3.2542,-3.2549,-3.2556,0,0,0,0,0,0,0,0,0,0,0,0,0,-3.1681,-3.1687,-3.2028,-3.2031,-3.2034,-3.2244,-3.2247,-3.225,-3.2324,-3.2323,-3.2322,-3.2321,-3.254,-3.2548,-3.2556,0,0,0,0,0,0,0,0,0,0,0,0,0,-3.1858,-3.1689,-3.2028,-3.2096,-3.2104,-3.2244,-3.2247,-3.2251,-3.2324,-3.2323,-3.2321,-3.232,-3.2538,-3.2547,-3.2557,-3.2645,0,0,-3.2588,-3.2592,0,0,0,0,0,0,0,0,-3.1847,-3.187,-3.2083,-3.2091,-3.2101,-3.2256,-3.2206,-3.2383,-3.2324,-3.224,-3.2321,-3.232,-3.2448,-3.2465,-3.2509,-3.2656,-3.2665,-3.2589,-3.2595,-3.2599,-3.2602,0,0,0,0,0,0,0,-3.1835,-3.1861,-3.2114,-3.2086,-3.2097,-3.2116,-3.214,-3.224,-3.2349,-3.2248,-3.2254,-3.2278,-3.2453,-3.2499,-3.2515,-3.2668,-3.2589,-3.2598,-3.2604,-3.2608,-3.2899,-3.2901,0,0,0,0,0,0,-3.1811,-3.1851,-3.2107,-3.2121,-3.1968,-3.2123,-3.215,-3.2207,-3.2348,-3.2368,-3.2279,-3.2281,-3.2482,-3.2503,-3.2523,-3.2635,-3.2599,-3.2609,-3.2614,-3.2897,-3.29,-3.2901,0,0,0,0,0,0,-3.1804,-3.1834,-3.2098,-3.1987,-3.2023,-3.2131,-3.2195,-3.2212,-3.2259,-3.2372,-3.2392,-3.2306,-3.2482,-3.2509,-3.2614,-3.2643,-3.2613,-3.2622,-3.2895,-3.2898,-3.2901,-3.2859,0,0,0,0,0,0,-3.1793,-3.183,-3.1864,-3.1988,-3.2028,-3.2186,-3.2197,-3.2218,-3.2276,-3.228,-3.2402,-3.2421,-3.2483,-3.2599,-3.2624,-3.2657,-3.263,-3.2893,-3.2897,-3.29,-3.2858,-3.286,-3.2862,0,0,0,0,0,-3.1781,-3.1844,-3.1865,-3.1896,-3.2073,-3.2187,-3.2211,-3.228,-3.2278,-3.2313,-3.2386,-3.2418,-3.2637,-3.2609,-3.2638,-3.2674,-3.2892,-3.2896,-3.2899,-3.2858,-3.286,-3.2861,0,0,0,0,0,0,-3.172,-3.1861,-3.1887,-3.1992,-3.2077,-3.2199,-3.2246,-3.228,-3.2368,-3.2368,-3.2452,-3.2479,-3.2578,-3.2637,-3.2604,-3.2767,-3.2766,-3.2776,-3.2724,-3.2727,-3.2729,-3.2711,-3.2639,0,0,0,0,0,-3.1719,-3.18,-3.1919,-3.2,-3.2042,-3.2136,-3.2189,-3.2236,-3.2327,-3.2364,-3.2445,-3.2532,-3.2622,-3.2678,-3.2766,-3.2868,-3.2896,-3.2908,-3.2909,-3.291,-3.2917,-3.2976,-3.2982,-3.2914,-3.2914,-3.2914,0,0,-3.1718,-3.1805,-3.1851,-3.1991,-3.2062,-3.2144,-3.2166,-3.2252,-3.2314,-3.2377,-3.2481,-3.2544,-3.2648,-3.2752,-3.2803,-3.2805,-3.2942,-3.2915,-3.2914,-3.2921,-3.298,-3.2987,-3.2992,-3.2917,-3.2916,-3.2916,0,0,-3.1757,-3.1831,-3.1907,-3.1979,-3.2087,-3.215,-3.2168,-3.2286,-3.233,-3.2437,-3.2486,-3.2562,-3.2713,-3.2785,-3.2841,-3.291,-3.2942,-3.2937,-3.2944,-3.3,-3.3006,-3.3011,-3.3035,-3.3042,-3.2944,-3.2944,-3.2944,0,-3.1741,-3.1867,-3.1941,-3.2025,-3.2085,-3.2147,-3.2225,-3.2291,-3.2422,-3.2463,-3.2464,-3.2656,-3.273,-3.2852,-3.2869,-3.2913,-3.2937,-3.2922,-3.2999,-3.3005,-3.3011,-3.3034,-3.3043,-3.2942,-3.2942,-3.2943,-3.2943,0,-3.1842,-3.1928,-3.1977,-3.2102,-3.2168,-3.2248,-3.2336,-3.2394,-3.2436,-3.2499,-3.2607,-3.2699,-3.2807,-3.284,-3.2881,-3.2969,-3.2967,-3.2983,-3.2982,-3.3014,-3.3038,-3.3048,-3.294,-3.2941,-3.2941,-3.2942,0,0,-3.1846,-3.2014,-3.203,-3.2088,-3.2213,-3.2282,-3.2366,-3.2472,-3.2519,-3.2609,-3.2681,-3.2809,-3.2825,-3.2889,-3.294,-3.2989,-3.3038,-3.3,-3.3003,-3.3002,-3.3139,-3.3125,-3.3135,-3.3061,-3.3063,-3.3065,-3.313,0,-3.19,-3.2051,-3.2122,-3.2242,-3.2323,-3.2385,-3.2458,-3.2543,-3.2605,-3.2683,-3.2752,-3.2841,-3.2855,-3.2894,-3.2946,-3.302,-3.3066,-3.3017,-3.3128,-3.3131,-3.3098,-3.3147,-3.3133,-3.319,-3.314,-3.3142,-3.3143,0,-3.1983,-3.2072,-3.22,-3.2317,-3.2354,-3.2418,-3.2521,-3.2596,-3.2694,-3.2736,-3.2808,-3.2857,-3.2948,-3.2944,-3.3071,-3.3036,-3.3086,-3.313,-3.3134,-3.3145,-3.3137,-3.3158,-3.321,-3.3217,-3.3158,-3.3157,-3.3156,0,-3.1972,-3.2125,-3.2221,-3.2269,-3.2408,-3.2452,-3.2512,-3.2609,-3.2668,-3.2759,-3.2799,-3.2899,-3.2954,-3.3031,-3.3106,-3.3096,-3.3226,-3.3227,-3.3263,-3.326,-3.3285,-3.3282,-3.3343,-3.332,-3.332,-3.332,-3.332,0,-3.2024,-3.2099,-3.2218,-3.2277,-3.2364,-3.2446,-3.253,-3.2595,-3.2681,-3.2754,-3.2814,-3.2882,-3.2978,-3.3058,-3.3118,-3.3214,-3.3239,-3.3275,-3.329,-3.3269,-3.3264,-3.3301,-3.3298,-3.3322,-3.3322,-3.3321,-3.3321,0,-3.2025,-3.2107,-3.2216,-3.234,-3.2372,-3.2431,-3.2537,-3.2597,-3.2663,-3.2755,-3.2781,-3.2884,-3.2982,-3.3065,-3.3194,-3.3234,-3.3333,-3.3352,-3.3299,-3.3307,-3.3337,-3.3332,-3.3423,-3.3439,-3.3405,-3.3406,-3.3406,0,-3.2051,-3.2111,-3.2241,-3.2294,-3.2353,-3.2438,-3.25,-3.2583,-3.2645,-3.2762,-3.2808,-3.2911,-3.2996,-3.3149,-3.3236,-3.3335,-3.3356,-3.3381,-3.3371,-3.3348,-3.3355,-3.3349,-3.3356,-3.338,-3.338,-3.338,-3.338,0,-3.2089,-3.2128,-3.2214,-3.2314,-3.2386,-3.2469,-3.2554,-3.2595,-3.2694,-3.2761,-3.2861,-3.2927,-3.3059,-3.316,-3.3269,-3.3332,-3.3372,-3.3383,-3.3396,-3.3374,-3.3341,-3.3358,-3.3299,-3.338,-3.338,-3.338,-3.338,-3.338,-3.2104,-3.216,-3.226,-3.2354,-3.2427,-3.2505,-3.2568,-3.2642,-3.2727,-3.2841,-3.2886,-3.2988,-3.3087,-3.3237,-3.33,-3.3382,-3.3388,-3.3408,-3.3412,-3.3415,-3.3411,-3.3329,-3.3403,-3.3403,-3.3403,-3.3403,-3.3403,0,-3.2144,-3.2212,-3.2298,-3.2415,-3.2489,-3.2522,-3.2619,-3.2678,-3.2768,-3.2856,-3.294,-3.3056,-3.3154,-3.325,-3.3353,-3.34,-3.3422,-3.3425,-3.3421,-3.3435,-3.3401,-3.3378,-3.3405,-3.3405,-3.3405,-3.3405,-3.3405,-3.3405,-3.2174,-3.227,-3.2321,-3.2455,-3.2523,-3.2623,-3.2675,-3.2748,-3.282,-3.2946,-3.3028,-3.309,-3.3182,-3.3293,-3.3385,-3.341,-3.3445,-3.3442,-3.3473,-3.3439,-3.3437,-3.3436,-3.3415,-3.345,-3.345,-3.35,-3.3501,-3.3501]},{"header":{"parameterUnit":"m.s-1","parameterCategory":1,"la1":30.2991,"la2":30.254,"lo1":-89.0895,"lo2":-89.0444,"dy":0.0017,"dx":0.0017,"nx":28,"ny":28,"refTime":"2025-03-30T03:00:00:Z","depth":0,"parameterNumber":3,"parameterNumberName":"V-component_of_WINDS"},"data":[0,0,0,0,0,0,0,0,0,0,0,0,0,0,0,0,0,0,0,0,0,0,0,0,0,0,0,0,0,0,0,0,0,0,0,0,0,0,0,0,0,0,0,0,0,0,0,0,0,0,0,0,0,0,0,0,0,0,3.0719,3.072,0,3.0902,3.0904,3.0906,3.0993,3.0993,3.0993,3.0993,3.1181,3.1186,3.1191,0,0,0,0,0,0,0,0,0,0,0,0,0,3.0447,3.0451,3.0718,3.0721,3.0723,3.0902,3.0904,3.0907,3.0993,3.0993,3.0993,3.0993,3.1179,3.1185,3.1191,0,0,0,0,0,0,0,0,0,0,0,0,0,3.0591,3.0452,3.0718,3.0788,3.0796,3.0901,3.0904,3.0907,3.0993,3.0993,3.0993,3.0993,3.1177,3.1184,3.1192,3.1242,0,0,3.1215,3.1219,0,0,0,0,0,0,0,0,3.0582,3.0601,3.0775,3.0783,3.0792,3.0924,3.0877,3.102,3.0993,3.0918,3.0993,3.0992,3.1095,3.111,3.1145,3.1251,3.1259,3.1216,3.1221,3.1224,3.1226,0,0,0,0,0,0,0,3.0572,3.0593,3.0791,3.0777,3.0788,3.0811,3.0831,3.0905,3.1005,3.0925,3.0931,3.0952,3.11,3.1137,3.115,3.1262,3.1216,3.1223,3.1227,3.123,3.1423,3.1424,0,0,0,0,0,0,3.0551,3.0584,3.0785,3.0797,3.0685,3.0816,3.0839,3.0882,3.1005,3.1023,3.0952,3.0955,3.1124,3.1141,3.1157,3.1226,3.1224,3.1231,3.1235,3.1422,3.1423,3.1424,0,0,0,0,0,0,3.0544,3.0568,3.0778,3.0692,3.0721,3.0821,3.0869,3.0886,3.0923,3.1025,3.1044,3.0971,3.1125,3.1146,3.1221,3.1234,3.1234,3.1241,3.1422,3.1423,3.1423,3.1363,0,0,0,0,0,0,3.0536,3.0565,3.0584,3.0692,3.0725,3.0838,3.087,3.0889,3.0936,3.0942,3.1048,3.1065,3.1126,3.1209,3.1229,3.1244,3.1247,3.1421,3.1422,3.1423,3.1365,3.1362,3.136,0,0,0,0,0,3.0526,3.0559,3.0584,3.0608,3.0751,3.0838,3.0857,3.0926,3.0936,3.0957,3.1024,3.1062,3.1229,3.1216,3.1239,3.1257,3.1421,3.1422,3.1423,3.1366,3.1363,3.136,0,0,0,0,0,0,3.0448,3.0574,3.0604,3.0672,3.0744,3.0853,3.0881,3.092,3.0991,3.0994,3.1077,3.11,3.1169,3.122,3.1204,3.1314,3.1329,3.1334,3.1277,3.1275,3.1273,3.1259,3.1254,0,0,0,0,0,3.0439,3.0499,3.0606,3.0656,3.0691,3.078,3.082,3.0868,3.0946,3.0976,3.1049,3.1123,3.1193,3.1237,3.1307,3.1373,3.1399,3.1397,3.1394,3.1392,3.1396,3.1438,3.144,3.1428,3.1428,3.1428,0,0,3.0421,3.0497,3.0529,3.0643,3.0704,3.0766,3.0805,3.0867,3.0915,3.0986,3.1062,3.1118,3.1207,3.1279,3.1314,3.1324,3.1405,3.1393,3.1391,3.1396,3.144,3.1441,3.1442,3.1428,3.1428,3.1428,0,0,3.0419,3.0482,3.0532,3.0593,3.0686,3.0746,3.0758,3.0862,3.0902,3.098,3.1036,3.1094,3.1212,3.1274,3.1321,3.1347,3.1386,3.1368,3.1355,3.1395,3.1396,3.1397,3.1409,3.1412,3.1372,3.1371,3.1371,0,3.0384,3.0479,3.0553,3.0614,3.0663,3.0732,3.0785,3.0841,3.0952,3.0985,3.0995,3.1147,3.1211,3.13,3.1307,3.1342,3.1361,3.1356,3.139,3.1392,3.1394,3.1406,3.141,3.1369,3.1369,3.1369,3.137,0,3.0433,3.0498,3.0528,3.0634,3.0687,3.0743,3.0828,3.0873,3.0916,3.0975,3.1056,3.1136,3.1225,3.125,3.1292,3.1346,3.135,3.1374,3.139,3.1391,3.1404,3.1409,3.1365,3.1366,3.1367,3.1367,0,0,3.0385,3.0534,3.0544,3.0595,3.0704,3.0757,3.0818,3.0905,3.0943,3.1019,3.1073,3.1173,3.1198,3.1251,3.1302,3.1337,3.1356,3.1357,3.1361,3.1356,3.1424,3.1406,3.141,3.1383,3.1384,3.1385,3.1417,0,3.0399,3.0511,3.0581,3.0666,3.0729,3.0797,3.0851,3.0925,3.0982,3.1045,3.111,3.118,3.1205,3.1238,3.1276,3.1345,3.1371,3.1344,3.1436,3.1438,3.1412,3.1416,3.1396,3.1422,3.1422,3.1423,3.1424,0,3.043,3.0505,3.0596,3.0702,3.0731,3.0778,3.0866,3.0925,3.1011,3.1051,3.1113,3.1165,3.1235,3.1246,3.1344,3.1324,3.1367,3.1407,3.141,3.1421,3.1431,3.1429,3.1432,3.1436,3.1432,3.1431,3.1431,0,3.0388,3.0512,3.0583,3.0624,3.0749,3.0781,3.0835,3.0921,3.0971,3.1048,3.1082,3.1166,3.1212,3.1277,3.1351,3.1352,3.1443,3.146,3.148,3.1478,3.1495,3.1493,3.1506,3.1521,3.1521,3.1521,3.1521,0,3.0397,3.045,3.0566,3.061,3.0673,3.0754,3.0815,3.0874,3.0952,3.101,3.1074,3.1128,3.1222,3.1288,3.1347,3.1421,3.1441,3.1477,3.1492,3.1471,3.1467,3.15,3.1501,3.1522,3.1522,3.1521,3.1521,0,3.036,3.0439,3.0522,3.0635,3.0665,3.0706,3.0804,3.085,3.0913,3.0986,3.1008,3.1106,3.1187,3.1268,3.1376,3.1417,3.149,3.151,3.1461,3.1469,3.1485,3.1483,3.1521,3.1531,3.1537,3.1537,3.1536,0,3.0361,3.0404,3.0522,3.0566,3.0618,3.0687,3.0739,3.0822,3.0874,3.0978,3.1012,3.1099,3.1172,3.1299,3.138,3.1465,3.1488,3.1496,3.1501,3.148,3.1491,3.1487,3.1493,3.1493,3.1492,3.1492,3.1492,0,3.0354,3.0392,3.0464,3.055,3.061,3.0682,3.0757,3.0789,3.0888,3.0942,3.1027,3.1084,3.1197,3.1282,3.1377,3.1434,3.148,3.149,3.1499,3.1479,3.1449,3.1467,3.1455,3.1488,3.1488,3.1489,3.1489,3.1489,3.0337,3.038,3.0471,3.055,3.0615,3.0684,3.0734,3.0804,3.0876,3.0974,3.1019,3.1105,3.1195,3.1327,3.1384,3.1453,3.1465,3.1478,3.1481,3.1483,3.148,3.1438,3.147,3.1471,3.1471,3.1471,3.1471,0,3.0336,3.0398,3.047,3.0573,3.0636,3.0675,3.076,3.081,3.0885,3.0964,3.1036,3.1135,3.1219,3.1309,3.1399,3.1438,3.1461,3.1459,3.1457,3.147,3.1463,3.1447,3.1438,3.1438,3.1438,3.1438,3.1438,3.1438,3.0342,3.0417,3.0467,3.0577,3.064,3.0724,3.077,3.0835,3.09,3.1007,3.1078,3.1136,3.1221,3.1319,3.1399,3.1423,3.1454,3.1446,3.1476,3.1468,3.147,3.1472,3.1457,3.1451,3.1451,3.1478,3.1478,3.1478]}]]